Terug naar catalogus

COSMOS 970 DEB

ActiefLEO
NORAD 14442·DEBRIS·🇷🇺 Russia

Gelanceerd Dec 21, 1977 vanaf Baikonur Cosmodrome

Loading…

Volgende Passages (komende 24 uur)

TLE

VersSource: Space-Track

Epoch: Sep 14, 2026, 09:22 UTC

1 14442U 77121BE  26257.39076093  .00001647  00000-0  14950-2 0  9991
2 14442  65.3661 232.0327 0019733 285.4694 237.6849 13.86270906414172

Volg COSMOS 970 DEB in realtime met AllMySat

Download on the App Store